Home   Weather   Salzburg   Past weeks

Flag for Austria Past Weather in Salzburg, Salzburg, Austria — Yesterday and Last 2 Weeks

Now
51 °F

Scattered clouds.


Feels Like: 50 °F
Forecast: 52 / 73 °F
Wind: 5 mph from South

Location: Salzburg-Flughafen

Current Time: Sep 28, 2016 at 9:03:50 AM

Latest Report: Sep 28, 2016 at 8:00 AM


Visibility: 14 mi

Pressure: 30.42 "Hg

Humidity: 86%

Dew Point: 47 °F

Location of SalzburgLocation

Past Weather in Salzburg — Graph

°F

Salzburg Temperature Yesterday

Maximum temperature yesterday: 70 °F (at 4:00 PM)
Minimum temperature yesterday: 47 °F (at 5:00 AM)
Average temperature yesterday: 57 °F

High & Low Weather Summary for the Past Weeks

 TemperatureHumidityPressure
High84 °F (Sep 15, 3:00 PM)100% (Sep 19, 7:00 AM)30.42 "Hg (Sep 19, 7:00 AM)
Low40 °F (Sep 22, 7:00 AM)34% (Sep 15, 3:00 PM)29.77 "Hg (Sep 15, 3:00 PM)
Average59 °F82%30.07 "Hg
* Reported Sep 13 8:00 AM — Sep 28 8:00 AM, Salzburg, Weather by CustomWeather, © 2016

Note: Actual official high and low records may vary slightly from our data, if they occured in-between our weather recording intervals... More about our weather records

Advertising

Salzburg Weather History for the Previous 24 Hours

Scroll right to see more
 ConditionsComfort  
Time TempWeatherWind HumidityBarometerVisibility
8:00 AM
Wed, Sep 28
51 °FScattered clouds.5 mph86%30.42 "Hg14 mi
7:00 AM49 °FPassing clouds.5 mph90%30.42 "Hg15 mi
6:00 AM50 °FPassing clouds.5 mph89%30.41 "Hg16 mi
5:00 AM50 °FPassing clouds.5 mph91%30.41 "Hg19 mi
4:00 AM51 °FPassing clouds.N/A91%30.41 "Hg18 mi
3:00 AM53 °FPassing clouds.3 mph88%30.40 "Hg14 mi
2:00 AM53 °FPassing clouds.5 mph89%30.40 "Hg14 mi
1:00 AM53 °FPassing clouds.3 mph91%30.40 "Hg11 mi
12:00 AM51 °FCool.N/A94%30.40 "Hg9 mi
11:00 PM
Tue, Sep 27
52 °FClear.N/A93%30.41 "Hg11 mi
10:00 PM53 °FClear.N/A93%30.39 "Hg6 mi
9:00 PM53 °FClear.N/A91%30.38 "Hg10 mi
8:00 PM57 °FClear.N/A87%30.34 "Hg16 mi
7:00 PM64 °FPassing clouds.N/A67%30.31 "Hg14 mi
6:00 PM68 °FPassing clouds.N/A56%30.27 "Hg18 mi
5:00 PM69 °FPassing clouds.N/A51%30.26 "Hg22 mi
4:00 PM70 °FPassing clouds.N/A54%30.26 "Hg16 mi
3:00 PM69 °FPassing clouds.N/A55%30.26 "Hg19 mi
2:00 PM67 °FPassing clouds.N/A63%30.27 "Hg14 mi
1:00 PM65 °FPassing clouds.N/A73%30.27 "Hg14 mi
12:00 PM62 °FPassing clouds.N/A74%30.28 "Hg11 mi
11:00 AM60 °FPassing clouds.N/A75%30.28 "Hg14 mi
10:00 AM57 °FScattered clouds.N/A80%30.28 "Hg16 mi
9:00 AM54 °FScattered clouds.N/A87%30.26 "Hg13 mi
Weather by CustomWeather, © 2016

See weather overviewHow to use our weather pages